[[{"header":{"parameterUnit":"m.s-1","parameterCategory":1,"la1":30.2991,"la2":30.254,"lo1":-89.0895,"lo2":-89.0444,"dy":0.0017,"dx":0.0017,"nx":28,"ny":28,"refTime":"2025-01-21T09:00:00:Z","depth":0,"parameterNumber":2,"parameterNumberName":"U-component_of_WINDS"},"data":[0,0,0,0,0,0,0,0,0,0,0,0,0,0,0,0,0,0,0,0,0,0,0,0,0,0,0,0,0,0,0,0,0,0,0,0,0,0,0,0,0,0,0,0,0,0,0,0,0,0,0,0,0,0,0,0,0,0,-0.7815,-0.7816,0,-0.7937,-0.7939,-0.794,-0.8012,-0.8012,-0.8012,-0.8013,-0.8136,-0.8138,-0.8141,0,0,0,0,0,0,0,0,0,0,0,0,0,-0.7641,-0.7644,-0.7815,-0.7816,-0.7818,-0.7937,-0.7939,-0.794,-0.8012,-0.8012,-0.8012,-0.8013,-0.8135,-0.8138,-0.8142,0,0,0,0,0,0,0,0,0,0,0,0,0,-0.7735,-0.7645,-0.7814,-0.7868,-0.7874,-0.7937,-0.7939,-0.7941,-0.8012,-0.8012,-0.8012,-0.8013,-0.8133,-0.8138,-0.8142,-0.8161,0,0,-0.8156,-0.8158,0,0,0,0,0,0,0,0,-0.773,-0.7742,-0.7858,-0.7864,-0.7871,-0.796,-0.7923,-0.8015,-0.8011,-0.7959,-0.8013,-0.8013,-0.8077,-0.8086,-0.8108,-0.8167,-0.8172,-0.8156,-0.8159,-0.8161,-0.8162,0,0,0,0,0,0,0,-0.7723,-0.7737,-0.7863,-0.786,-0.7868,-0.7885,-0.7899,-0.794,-0.8014,-0.7964,-0.7969,-0.7983,-0.808,-0.8103,-0.8111,-0.8174,-0.8156,-0.816,-0.8163,-0.8165,-0.8256,-0.8255,0,0,0,0,0,0,-0.7708,-0.7731,-0.7859,-0.7867,-0.78,-0.7888,-0.7903,-0.7931,-0.8014,-0.8027,-0.7982,-0.7986,-0.8095,-0.8106,-0.8116,-0.8144,-0.8161,-0.8165,-0.8168,-0.8256,-0.8255,-0.8255,0,0,0,0,0,0,-0.7704,-0.7719,-0.7854,-0.78,-0.7819,-0.789,-0.7921,-0.7933,-0.7956,-0.8028,-0.8041,-0.7993,-0.8096,-0.8109,-0.815,-0.8149,-0.8167,-0.8171,-0.8256,-0.8256,-0.8255,-0.8199,0,0,0,0,0,0,-0.7699,-0.7717,-0.7725,-0.78,-0.7822,-0.7886,-0.7921,-0.7935,-0.7964,-0.797,-0.8041,-0.8053,-0.8097,-0.8143,-0.8154,-0.8155,-0.8175,-0.8257,-0.8256,-0.8255,-0.8202,-0.8197,-0.8193,0,0,0,0,0,-0.7693,-0.7704,-0.7725,-0.774,-0.7833,-0.7886,-0.7898,-0.795,-0.7964,-0.7972,-0.8018,-0.8051,-0.8147,-0.8146,-0.816,-0.8162,-0.8257,-0.8256,-0.8255,-0.8203,-0.8198,-0.8193,0,0,0,0,0,0,-0.7626,-0.7715,-0.7739,-0.7775,-0.7823,-0.7898,-0.791,-0.7942,-0.7986,-0.799,-0.8051,-0.8067,-0.8101,-0.8136,-0.8133,-0.8185,-0.8206,-0.8208,-0.8161,-0.8157,-0.8153,-0.8143,-0.8178,0,0,0,0,0,-0.7616,-0.7652,-0.7727,-0.7751,-0.7774,-0.7838,-0.7863,-0.7899,-0.795,-0.7971,-0.802,-0.8068,-0.8109,-0.8135,-0.8177,-0.8207,-0.8224,-0.8216,-0.8212,-0.8208,-0.8209,-0.8228,-0.8226,-0.8253,-0.8253,-0.8253,0,0,-0.7594,-0.7647,-0.7666,-0.7739,-0.7781,-0.7816,-0.7854,-0.789,-0.7918,-0.7976,-0.8017,-0.8055,-0.8113,-0.8148,-0.8166,-0.8178,-0.8205,-0.8207,-0.8204,-0.8207,-0.8227,-0.8225,-0.8222,-0.8253,-0.8253,-0.8253,0,0,-0.7574,-0.7617,-0.7643,-0.7684,-0.7746,-0.7789,-0.7794,-0.7866,-0.7893,-0.7936,-0.7981,-0.8014,-0.8084,-0.8123,-0.8153,-0.8149,-0.818,-0.816,-0.8138,-0.8157,-0.8154,-0.8153,-0.8152,-0.815,-0.8161,-0.8161,-0.8161,0,-0.7539,-0.7595,-0.7651,-0.7686,-0.7717,-0.7772,-0.7799,-0.7835,-0.7907,-0.7928,-0.794,-0.803,-0.8073,-0.8119,-0.8118,-0.814,-0.8149,-0.8152,-0.815,-0.8149,-0.8149,-0.8148,-0.8147,-0.8158,-0.8159,-0.8159,-0.8159,0,-0.755,-0.7588,-0.7601,-0.7671,-0.7704,-0.7733,-0.7794,-0.782,-0.7854,-0.7895,-0.7938,-0.7992,-0.8046,-0.806,-0.8092,-0.8111,-0.8116,-0.8139,-0.816,-0.8142,-0.8143,-0.8143,-0.8154,-0.8155,-0.8156,-0.8157,0,0,-0.7489,-0.7591,-0.7595,-0.7627,-0.7701,-0.7731,-0.7764,-0.7818,-0.784,-0.7888,-0.7917,-0.7976,-0.7997,-0.8031,-0.8068,-0.8084,-0.8078,-0.8105,-0.8107,-0.8098,-0.8102,-0.8084,-0.8083,-0.81,-0.81,-0.81,-0.8097,0,-0.7479,-0.7541,-0.7593,-0.7636,-0.7672,-0.7727,-0.7755,-0.7803,-0.7843,-0.7879,-0.7923,-0.7964,-0.7989,-0.801,-0.8028,-0.8075,-0.808,-0.8076,-0.8127,-0.8128,-0.811,-0.8084,-0.8065,-0.806,-0.8098,-0.8098,-0.8098,0,-0.7475,-0.7523,-0.7569,-0.764,-0.7657,-0.7682,-0.7737,-0.7771,-0.7827,-0.7854,-0.7892,-0.7932,-0.7969,-0.7987,-0.8039,-0.8035,-0.8059,-0.8085,-0.8086,-0.8093,-0.8111,-0.8089,-0.8059,-0.8058,-0.8099,-0.8099,-0.8099,0,-0.7427,-0.7502,-0.754,-0.7566,-0.765,-0.7666,-0.7702,-0.7758,-0.7788,-0.7835,-0.7855,-0.7905,-0.7933,-0.7971,-0.8024,-0.8032,-0.807,-0.8092,-0.8094,-0.8093,-0.8099,-0.8098,-0.8072,-0.8115,-0.8115,-0.8115,-0.8115,0,-0.741,-0.7436,-0.752,-0.7542,-0.7574,-0.7634,-0.7663,-0.7703,-0.7753,-0.7785,-0.7835,-0.7863,-0.7931,-0.7968,-0.8009,-0.8045,-0.8057,-0.8081,-0.8091,-0.8076,-0.8073,-0.8092,-0.8094,-0.8114,-0.8115,-0.8115,-0.8115,0,-0.7361,-0.7417,-0.7462,-0.7538,-0.7558,-0.7578,-0.7643,-0.7667,-0.771,-0.775,-0.7763,-0.783,-0.7876,-0.7933,-0.7996,-0.8024,-0.8057,-0.8073,-0.8038,-0.8044,-0.8042,-0.8042,-0.8028,-0.803,-0.807,-0.807,-0.807,0,-0.7346,-0.7368,-0.7446,-0.7472,-0.7506,-0.7546,-0.7577,-0.7637,-0.7667,-0.7733,-0.775,-0.78,-0.7843,-0.7914,-0.7968,-0.8018,-0.8035,-0.8027,-0.8043,-0.8027,-0.8035,-0.8033,-0.8036,-0.8023,-0.8022,-0.8021,-0.8021,0,-0.7314,-0.7341,-0.7384,-0.7437,-0.7473,-0.7518,-0.7564,-0.7582,-0.7652,-0.7683,-0.7731,-0.7765,-0.7831,-0.788,-0.7937,-0.7973,-0.8008,-0.8016,-0.8019,-0.8003,-0.7982,-0.7994,-0.8027,-0.8016,-0.8016,-0.8016,-0.8017,-0.8017,-0.7282,-0.7304,-0.7363,-0.7409,-0.7451,-0.7494,-0.7521,-0.7568,-0.761,-0.7669,-0.7702,-0.7749,-0.7806,-0.7885,-0.792,-0.7958,-0.7971,-0.7975,-0.7976,-0.7976,-0.7972,-0.7977,-0.7969,-0.7969,-0.7969,-0.7969,-0.797,0,-0.7252,-0.7293,-0.7336,-0.74,-0.7436,-0.7468,-0.7522,-0.755,-0.7591,-0.7641,-0.7684,-0.7739,-0.7788,-0.7846,-0.7899,-0.7917,-0.7935,-0.7929,-0.7928,-0.7936,-0.7957,-0.795,-0.7914,-0.7914,-0.7914,-0.7914,-0.7914,-0.7914,-0.7241,-0.728,-0.7315,-0.7376,-0.7417,-0.7464,-0.7492,-0.7532,-0.7573,-0.7633,-0.7674,-0.7712,-0.7766,-0.7823,-0.7868,-0.7884,-0.7901,-0.789,-0.7911,-0.793,-0.7934,-0.7939,-0.7932,-0.7893,-0.7893,-0.7887,-0.7887,-0.7887]},{"header":{"parameterUnit":"m.s-1","parameterCategory":1,"la1":30.2991,"la2":30.254,"lo1":-89.0895,"lo2":-89.0444,"dy":0.0017,"dx":0.0017,"nx":28,"ny":28,"refTime":"2025-01-21T09:00:00:Z","depth":0,"parameterNumber":3,"parameterNumberName":"V-component_of_WINDS"},"data":[0,0,0,0,0,0,0,0,0,0,0,0,0,0,0,0,0,0,0,0,0,0,0,0,0,0,0,0,0,0,0,0,0,0,0,0,0,0,0,0,0,0,0,0,0,0,0,0,0,0,0,0,0,0,0,0,0,0,0.0089,0.0089,0,0.0069,0.0069,0.0069,0.0018,0.0017,0.0015,0.0014,-0.0005,-0.0005,-0.0004,0,0,0,0,0,0,0,0,0,0,0,0,0,0.0083,0.0083,0.0089,0.0089,0.0089,0.0069,0.0069,0.0069,0.0018,0.0016,0.0015,0.0014,-0.0005,-0.0005,-0.0004,0,0,0,0,0,0,0,0,0,0,0,0,0,0.0077,0.0083,0.0089,0.0061,0.0058,0.0069,0.0069,0.0069,0.0018,0.0016,0.0015,0.0013,-0.0005,-0.0005,-0.0004,0.0033,0,0,-0.0002,-0.0001,0,0,0,0,0,0,0,0,0.0077,0.0077,0.0065,0.0063,0.006,0.0044,0.006,0.0057,0.0019,0.0033,0.0014,0.0013,0.0013,0.0012,0.0012,0.0032,0.0032,-0.0002,-0.0001,-0.0001,-0.0001,0,0,0,0,0,0,0,0.0078,0.0077,0.0081,0.0065,0.0062,0.0049,0.0046,0.0059,0.0032,0.0032,0.0028,0.0026,0.0011,0.0011,0.0011,0.0031,-0.0002,-0.0001,-0.0001,-0.0,0.0081,0.0083,0,0,0,0,0,0,0.0082,0.0078,0.0082,0.0081,0.0064,0.0051,0.0048,0.0051,0.0032,0.0028,0.0028,0.0024,0.0011,0.001,0.001,0.0052,-0.0001,-0.0,0.0,0.0079,0.0081,0.0083,0,0,0,0,0,0,0.0082,0.0083,0.0083,0.0078,0.0077,0.0052,0.0057,0.0051,0.0051,0.0029,0.0024,0.0033,0.0009,0.0009,0.0028,0.0051,0.0,0.0001,0.0077,0.008,0.0082,0.0137,0,0,0,0,0,0,0.0082,0.0083,0.0097,0.0079,0.0078,0.0101,0.0058,0.0052,0.0053,0.0048,0.0033,0.0029,0.0008,0.0027,0.0029,0.0051,0.0001,0.0075,0.0078,0.0081,0.0133,0.0141,0.0148,0,0,0,0,0,0.0082,0.0114,0.0098,0.0099,0.0095,0.0102,0.0102,0.0077,0.0055,0.0069,0.0054,0.0029,0.0048,0.0029,0.0031,0.0054,0.0073,0.0077,0.0081,0.013,0.014,0.0148,0,0,0,0,0,0,0.0136,0.0111,0.0093,0.012,0.0114,0.0094,0.011,0.0088,0.0088,0.0084,0.0054,0.0051,0.0074,0.0065,0.0045,0.0088,0.0057,0.0061,0.0093,0.0102,0.011,0.0111,0.0002,0,0,0,0,0,0.015,0.0159,0.0136,0.0162,0.016,0.0136,0.0138,0.012,0.0112,0.0109,0.0096,0.009,0.0094,0.0097,0.01,0.0131,0.0127,0.0148,0.0155,0.0162,0.0166,0.0181,0.019,0.0096,0.0096,0.0096,0,0,0.0181,0.0169,0.0176,0.0173,0.0165,0.0174,0.0134,0.0145,0.0152,0.0111,0.0128,0.0118,0.0109,0.0134,0.0144,0.0127,0.0191,0.0167,0.0172,0.0172,0.0186,0.0195,0.0203,0.0098,0.0098,0.0097,0,0,0.0242,0.0234,0.0254,0.0247,0.0237,0.0221,0.0225,0.0209,0.02,0.0217,0.0186,0.0193,0.0201,0.0196,0.0194,0.0252,0.0229,0.0254,0.0294,0.0309,0.0316,0.0323,0.0343,0.0351,0.0258,0.0258,0.0258,0,0.0282,0.0295,0.0267,0.028,0.028,0.0243,0.0263,0.0258,0.0249,0.0249,0.0231,0.024,0.0231,0.0254,0.0268,0.0268,0.0273,0.0256,0.0317,0.0324,0.0329,0.0348,0.0356,0.0262,0.0261,0.0261,0.0261,0,0.0344,0.0353,0.0371,0.0362,0.0364,0.038,0.0355,0.036,0.0341,0.0327,0.0344,0.0332,0.0331,0.0335,0.0317,0.0356,0.0346,0.0323,0.029,0.0342,0.0359,0.0367,0.0266,0.0265,0.0264,0.0263,0,0,0.0439,0.0415,0.0422,0.0417,0.0403,0.0409,0.0424,0.0423,0.0427,0.0422,0.0434,0.0441,0.042,0.0418,0.0399,0.0412,0.0459,0.0388,0.0387,0.0401,0.05,0.0517,0.0526,0.0443,0.0444,0.0445,0.0501,0,0.0496,0.052,0.0496,0.0524,0.0532,0.0497,0.0509,0.0502,0.0489,0.0493,0.0478,0.0484,0.0455,0.0454,0.0466,0.0451,0.0478,0.0446,0.0454,0.0454,0.0457,0.0536,0.0554,0.0607,0.0507,0.0509,0.0509,0,0.0567,0.0565,0.0594,0.0577,0.0579,0.0591,0.0588,0.0593,0.0583,0.0572,0.057,0.0547,0.056,0.0528,0.0546,0.0524,0.0526,0.0519,0.052,0.052,0.0485,0.0538,0.0623,0.0631,0.052,0.0519,0.0518,0,0.0633,0.0637,0.0655,0.0653,0.0633,0.0642,0.0634,0.0623,0.0624,0.0621,0.0621,0.062,0.062,0.062,0.0597,0.0576,0.0617,0.0583,0.0609,0.0609,0.0619,0.0619,0.0706,0.062,0.062,0.062,0.062,0,0.07,0.072,0.0685,0.0696,0.0717,0.0688,0.0709,0.0698,0.0688,0.0696,0.0665,0.0674,0.0643,0.0648,0.063,0.0647,0.0647,0.0639,0.0634,0.0642,0.0643,0.0642,0.0638,0.0622,0.0622,0.0621,0.0621,0,0.0778,0.0755,0.0773,0.0752,0.0747,0.0764,0.0746,0.0756,0.074,0.0751,0.0751,0.0727,0.0731,0.0708,0.0709,0.0697,0.0723,0.0711,0.0726,0.0722,0.0749,0.0747,0.0839,0.085,0.0757,0.0758,0.0759,0,0.0822,0.0836,0.0817,0.082,0.0814,0.0819,0.082,0.0792,0.0794,0.0783,0.0794,0.0795,0.0795,0.0804,0.0786,0.0786,0.0775,0.0807,0.0775,0.0782,0.0775,0.0775,0.0776,0.0814,0.0815,0.0816,0.0817,0,0.0903,0.0891,0.0893,0.089,0.0892,0.0889,0.0884,0.0888,0.0858,0.0861,0.0865,0.0865,0.0865,0.0867,0.0863,0.0855,0.0831,0.0827,0.0833,0.0841,0.0849,0.0845,0.0744,0.0825,0.0824,0.0824,0.0823,0.0823,0.0965,0.0976,0.0964,0.0967,0.096,0.0955,0.0963,0.0948,0.0951,0.0948,0.0931,0.0938,0.0928,0.092,0.0914,0.0919,0.0904,0.0912,0.0914,0.0917,0.0922,0.0848,0.0918,0.0918,0.0918,0.0917,0.0917,0,0.1045,0.1035,0.1038,0.1031,0.1033,0.101,0.1003,0.1006,0.1013,0.1004,0.1005,0.1009,0.101,0.0993,0.0992,0.0999,0.0988,0.1,0.0999,0.0998,0.0935,0.093,0.1009,0.1009,0.1009,0.1009,0.1009,0.1009,0.1086,0.1103,0.1089,0.1102,0.1092,0.1098,0.1096,0.1092,0.1085,0.1091,0.1092,0.108,0.1068,0.1066,0.1066,0.1061,0.1062,0.1077,0.1068,0.1011,0.1002,0.0994,0.0989,0.1078,0.1078,0.113,0.113,0.1131]}]]